Tracking 19247 objects as of 24-Sep-2018
HD Live streaming from Space Station
objects crossing your sky now

FENGYUN 1C DEB

Track FENGYUN 1C DEB now!
10-day predictions


NORAD ID: 35129
Int'l Code: 1999-025DLH
Perigee: 777.9 km
Apogee: 984.1 km
Inclination: 98.3 °
Period: 102.4 minutes
Semi major axis: 7251 km
RCS: 0.0081 m2 (small)
Launch date: May 10, 1999
Source: People's Republic of China (PRC)
Launch site: Taiyaun Space Center, China (TSC)

Note: This is SATELLITE DEBRIS
aabbcc
Your satellite tracking list
Your tracking list is empty




NASA's NSSDC Master Catalog

Two Line Element Set (TLE):
1 35129U 99025DLH 18238.19695962  .00000670  00000-0  39568-3 0  9991
2 35129  98.2657 238.2424 0142177  53.2235 308.1887 14.05786973529692
Source of the keplerian elements: AFSPC